Location: Fort Wayne
(41.1310°N, 85.1290°W)
Time: 17:00:21
(UTC-04:00)

Meteor 2-9 Rocket - Visible Passes

Search period start: 28 June 2017 00:00
Search period end: 08 July 2017 00:00
Orbit: 792 x 895 km, 81.3° (Epoch: 27 June)

Date Brightness Start Highest point End Pass type
(mag) Time Alt. Az. Time Alt. Az. Time Alt. Az.
28 Jun 7.0 05:29:39 10° ESE 05:32:27 14° E 05:35:17 10° NE visible
29 Jun 7.1 05:16:16 10° ESE 05:18:26 12° E 05:20:37 10° ENE visible
30 Jun 7.3 05:03:16 10° E 05:04:25 11° E 05:05:33 10° ENE visible
05 Jul 5.3 05:30:23 10° SSE 05:35:41 48° E 05:41:09 10° NNE visible
06 Jul 5.5 05:16:24 10° SSE 05:21:36 42° E 05:26:58 10° NNE visible
07 Jul 5.6 05:02:27 10° SSE 05:07:32 37° E 05:12:45 10° NNE visible
